����,���ϕ���(m/s),���ϕ���,�ő�u�ԕ���(m/s),�ő啗��������,�C��(��),���x(%),10���Ԉړ��ώZ�J��(mm),1���Ԉړ��ώZ�J��(mm),���J��(mm),�݌v�J��(mm),����(���ώZ)(MJ/m2),����(���ώZ)(min),���n�C��(hPa),�C�ʋC��(hPa)
2019-09-23T00:00:00+09:00,1,��,2,���k��,21.5,97.6,0,0.5,3,3,4.86,0,990.5,1003.9
2019-09-23T00:01:00+09:00,1,�쓌,2,���k��,21.3,97.3,0,0.5,0,3,0,0,990.4,1003.8
2019-09-23T00:02:00+09:00,1,���쓌,2,���k��,21.3,97.1,0,0.5,0,3,0,0,990.3,1003.7
2019-09-23T00:03:00+09:00,1,��,2,���k��,21.3,97.3,0,0.5,0,3,0,0,990.3,1003.7
2019-09-23T00:04:00+09:00,0.9,��,2,���k��,21.4,97.5,0,0.5,0,3,0,0,990.2,1003.6
2019-09-23T00:05:00+09:00,0.9,��,2,���k��,21.4,97.6,0,0.5,0,3,0,0,990.2,1003.6
2019-09-23T00:06:00+09:00,0.9,���k��,2,���k��,21.6,97.8,0,0.5,0,3,0,0,990.1,1003.5
2019-09-23T00:07:00+09:00,0.8,���k��,2,���k��,21.6,97.8,0,0.5,0,3,0,0,990.1,1003.5
2019-09-23T00:08:00+09:00,0.7,��,1.7,���k��,21.7,97.8,0,0.5,0,3,0,0,990.1,1003.5
2019-09-23T00:09:00+09:00,0.7,��,1.7,���k��,21.8,97.8,0,0,0,3,0,0,990,1003.4
2019-09-23T00:10:00+09:00,0.6,���쓌,1.7,���k��,21.9,97.8,0,0,0,3,0,0,990,1003.4
2019-09-23T00:11:00+09:00,0.6,��쓌,1.4,��쐼,21.7,97.5,0,0,0,3,0,0,990,1003.4
2019-09-23T00:12:00+09:00,0.6,��,2.8,��,21.6,97.2,0,0,0,3,0,0,989.9,1003.3
2019-09-23T00:13:00+09:00,0.7,��쐼,2.8,��,22,97.6,0,0,0,3,0,0,989.9,1003.3
2019-09-23T00:14:00+09:00,0.7,��쐼,2.8,��,22.2,97.7,0,0,0,3,0,0,989.9,1003.2
2019-09-23T00:15:00+09:00,0.8,��쐼,2.8,��,22.3,97.4,0,0,0,3,0,0,989.9,1003.2
2019-09-23T00:16:00+09:00,0.9,��쐼,2.8,��,22.3,96.9,0,0,0,3,0,0,989.9,1003.2
2019-09-23T00:17:00+09:00,1,��,2.8,��,22.4,96.4,0,0,0,3,0,0,989.9,1003.2
2019-09-23T00:18:00+09:00,1.2,��,2.8,��,22.5,95.9,0,0,0,3,0,0,989.9,1003.2
2019-09-23T00:19:00+09:00,1.1,��,2.8,��,22.6,95.5,0,0,0,3,0,0,989.8,1003.1
2019-09-23T00:20:00+09:00,1.2,��,2.8,��,22.7,94.3,0,0,0,3,0,0,989.8,1003.1
2019-09-23T00:21:00+09:00,1.2,��,2.8,��,22.7,93.3,0,0,0,3,0,0,989.9,1003.2
2019-09-23T00:22:00+09:00,1.1,��,2.7,��쐼,22.8,92.8,0,0,0,3,0,0,989.8,1003.1
2019-09-23T00:23:00+09:00,1,��쓌,2.7,��쐼,22.8,92.4,0,0,0,3,0,0,989.8,1003.1
2019-09-23T00:24:00+09:00,0.9,��쓌,2.7,��쐼,22.8,92,0,0,0,3,0,0,989.8,1003.1
2019-09-23T00:25:00+09:00,0.9,��쓌,2.7,��쐼,22.2,91.5,0,0,0,3,0,0,989.8,1003.1
2019-09-23T00:26:00+09:00,0.9,��쓌,2.7,��쐼,22.4,92.8,0,0,0,3,0,0,989.7,1003
2019-09-23T00:27:00+09:00,0.7,��쓌,2.3,��,22.9,94,0,0,0,3,0,0,989.7,1003
2019-09-23T00:28:00+09:00,0.6,��쓌,2,�쓌,22.9,92.1,0,0,0,3,0,0,989.8,1003.1
2019-09-23T00:29:00+09:00,0.6,��쓌,2,�쓌,22.9,91.3,0,0,0,3,0,0,989.7,1003
2019-09-23T00:30:00+09:00,0.6,��쓌,2,�쓌,22.8,90.6,0,0,0,3,0,0,989.7,1003
2019-09-23T00:31:00+09:00,,,,,,,,,,,,,,
2019-09-23T00:32:00+09:00,0.6,�쓌,2,�쓌,22.6,91.3,0,0,0,3,0,0,989.7,1003
2019-09-23T00:33:00+09:00,0.6,�쓌,2,�쓌,22.9,92,0,0,0,3,0,0,989.9,1003.2
2019-09-23T00:34:00+09:00,0.7,�쓌,2,�쓌,23.2,91.3,0,0,0,3,0,0,990,1003.3
2019-09-23T00:35:00+09:00,0.8,�쓌,2.7,��,22.7,90.2,0,0,0,3,0,0,990.1,1003.4
2019-09-23T00:36:00+09:00,0.8,��쓌,2.7,��,22.9,91.4,0,0,0,3,0,0,990.2,1003.5
2019-09-23T00:37:00+09:00,0.9,��쓌,3.2,��,23.1,91.4,0,0,0,3,0,0,990.2,1003.5
2019-09-23T00:38:00+09:00,1.1,��쓌,4.5,��쐼,23.1,91,0.5,0.5,0.5,3.5,0,0,990.2,1003.5
2019-09-23T00:39:00+09:00,1.5,��쓌,5.8,��쐼,23.3,91.1,0.5,0.5,0.5,3.5,0,0,990.2,1003.5
2019-09-23T00:40:00+09:00,1.9,��,7.6,��쐼,23.7,90.6,0.5,0.5,0.5,3.5,0,0,990.2,1003.5
2019-09-23T00:41:00+09:00,2.4,��,8.6,��쐼,23.9,89.2,1,1,1,4,0,0,990.1,1003.4
2019-09-23T00:42:00+09:00,2.8,��쐼,8.6,��쐼,24.2,87.9,1,1,1,4,0,0,990.2,1003.5
2019-09-23T00:43:00+09:00,3.3,��쐼,8.6,��쐼,24.2,87,1,1,1,4,0,0,990.4,1003.7
2019-09-23T00:44:00+09:00,3.9,��쐼,8.6,��쐼,24.1,87,1.5,1.5,1.5,4.5,0,0,990.4,1003.7
2019-09-23T00:45:00+09:00,4.1,��쐼,8.6,��쐼,24,87.4,1.5,1.5,1.5,4.5,0,0,990.3,1003.6
2019-09-23T00:46:00+09:00,4.2,��쐼,8.6,��쐼,23.8,88.1,2,2,2,5,0,0,990.3,1003.6
2019-09-23T00:47:00+09:00,4.4,��쐼,8.6,��쐼,23.8,89,2.5,2.5,2.5,5.5,0,0,990.3,1003.6
2019-09-23T00:48:00+09:00,4.8,��쐼,8.9,��쐼,23.7,89.8,2.5,3,3,6,0,0,990.4,1003.7
2019-09-23T00:49:00+09:00,4.9,��쐼,8.9,��쐼,23.6,90.5,2.5,3,3,6,0,0,990.4,1003.7
2019-09-23T00:50:00+09:00,4.9,��쐼,8.9,��쐼,23.6,91,3,3.5,3.5,6.5,0,0,990.6,1003.9
2019-09-23T00:51:00+09:00,4.7,��쐼,8.9,��쐼,23.5,91.5,2.5,3.5,3.5,6.5,0,0,990.6,1003.9
2019-09-23T00:52:00+09:00,4.6,��쐼,8.9,��쐼,23.4,92.1,3,4,4,7,0,0,990.7,1004
2019-09-23T00:53:00+09:00,4.6,��쐼,8.9,��쐼,23.4,92.7,3,4,4,7,0,0,990.8,1004.1
2019-09-23T00:54:00+09:00,4.7,��쐼,9.7,��,23.4,93.1,2.5,4,4,7,0,0,990.6,1003.9
2019-09-23T00:55:00+09:00,5,��쐼,9.7,��,23.7,93.3,2.5,4,4,7,0,0,990.6,1003.9
2019-09-23T00:56:00+09:00,5.1,��쐼,9.7,��,23.6,92.2,2,4,4,7,0,0,990.7,1004
2019-09-23T00:57:00+09:00,5,��,9.7,��,23.5,92,1.5,4,4,7,0,0,990.6,1003.9
2019-09-23T00:58:00+09:00,4.9,��,9.7,��,23.4,92.4,1.5,4.5,4.5,7.5,0,0,990.6,1003.9
2019-09-23T00:59:00+09:00,4.7,��쐼,9.7,��,23.4,92.8,1.5,4.5,4.5,7.5,0,0,990.6,1003.9
2019-09-23T01:00:00+09:00,4.5,��쐼,9.7,��,23.4,93.2,1,4.5,4.5,7.5,0,0,990.6,1003.9
2019-09-23T01:01:00+09:00,4.7,��쐼,9.7,��,23.4,93.4,1,4.5,4.5,7.5,0,0,990.6,1003.9
2019-09-23T01:02:00+09:00,4.6,��쐼,9.7,��,23.4,93.3,0.5,4.5,4.5,7.5,0,0,990.6,1003.9
2019-09-23T01:03:00+09:00,4.5,��쐼,9.7,��,23.5,93.3,0.5,4.5,4.5,7.5,0,0,990.5,1003.8
2019-09-23T01:04:00+09:00,4.3,��쐼,9.4,��,23.7,93,0.5,4.5,4.5,7.5,0,0,990.4,1003.7
2019-09-23T01:05:00+09:00,4.1,��쐼,7.7,��,23.8,92.1,0.5,4.5,4.5,7.5,0,0,990.3,1003.6
2019-09-23T01:06:00+09:00,,,,,,,,,,,,,,
2019-09-23T01:07:00+09:00,4,��쐼,7.7,��,23.9,90.5,0.5,4.5,4.5,7.5,0,0,990.3,1003.6
2019-09-23T01:08:00+09:00,3.7,��쐼,7.7,��,23.9,90.1,0,4.5,4.5,7.5,0,0,990.1,1003.4
2019-09-23T01:09:00+09:00,3.7,��,7.7,��,23.9,89.7,0,4.5,4.5,7.5,0,0,990,1003.3
2019-09-23T01:10:00+09:00,3.6,��,7.7,��,24.1,89.5,0,4.5,4.5,7.5,0,0,990,1003.3
2019-09-23T01:11:00+09:00,3.5,��,7.7,��,24.2,88.6,0,4.5,4.5,7.5,0,0,990,1003.3
2019-09-23T01:12:00+09:00,3.3,��,7.7,��,24.2,88,0,4.5,4.5,7.5,0,0,990.1,1003.4
2019-09-23T01:13:00+09:00,3,��,7.2,��,24.2,87.8,0,4.5,4.5,7.5,0,0,990.3,1003.6
2019-09-23T01:14:00+09:00,2.7,��,6.7,��,24.1,87.8,0,4.5,4.5,7.5,0,0,990.1,1003.4
2019-09-23T01:15:00+09:00,2.4,��,6.7,��,24.2,87.9,0,4.5,4.5,7.5,0,0,989.9,1003.2
2019-09-23T01:16:00+09:00,2.2,��쓌,6.7,��,24.2,87.9,0,4.5,4.5,7.5,0,0,990,1003.3
2019-09-23T01:17:00+09:00,2.2,��쓌,6.7,��,24.2,87.7,0,4.5,4.5,7.5,0,0,990,1003.3
2019-09-23T01:18:00+09:00,2.2,��쓌,6.7,��,24.3,87.6,0,4.5,4.5,7.5,0,0,990,1003.3
2019-09-23T01:19:00+09:00,2.1,��쓌,6.7,��,24.4,87.2,0,4.5,4.5,7.5,0,0,990.1,1003.3
2019-09-23T01:20:00+09:00,2.3,��쓌,8.1,��쓌,24.5,86.9,0,4.5,4.5,7.5,0,0,990.2,1003.4
2019-09-23T01:21:00+09:00,2.3,��쓌,9.1,��,24.4,86.9,0,4.5,4.5,7.5,0,0,990.2,1003.4
2019-09-23T01:22:00+09:00,2.3,��쓌,9.1,��,24.3,87,0,4.5,4.5,7.5,0,0,990.1,1003.4
2019-09-23T01:23:00+09:00,2.4,��쓌,9.1,��,24.2,87.5,0.5,5,5,8,0,0,990.2,1003.5
2019-09-23T01:24:00+09:00,2.4,��쓌,9.1,��,24.2,88,0.5,5,5,8,0,0,990.2,1003.5
2019-09-23T01:25:00+09:00,2.7,��쓌,10.1,��쓌,24.2,88.3,0.5,5,5,8,0,0,990.2,1003.5
2019-09-23T01:26:00+09:00,2.9,��쓌,10.1,��쓌,24.1,88.5,0.5,5,5,8,0,0,990.2,1003.5
2019-09-23T01:27:00+09:00,3.3,��쓌,10.2,��쐼,24.1,88.8,0.5,5,5,8,0,0,990.1,1003.4
2019-09-23T01:28:00+09:00,3.4,��쓌,10.2,��쐼,24.1,89.2,0.5,5,5,8,0,0,990,1003.3
2019-09-23T01:29:00+09:00,3.5,��,10.2,��쐼,24.1,89.6,0.5,5,5,8,0,0,989.9,1003.2
2019-09-23T01:30:00+09:00,3.7,��,10.4,��쐼,24.2,89.5,1,5.5,5.5,8.5,0,0,989.7,1003
2019-09-23T01:31:00+09:00,3.7,��,10.4,��쐼,24.2,89.3,1,5.5,5.5,8.5,0,0,989.9,1003.2
2019-09-23T01:32:00+09:00,3.7,��,10.4,��쐼,24,89.3,1,5.5,5.5,8.5,0,0,989.9,1003.2
2019-09-23T01:33:00+09:00,3.6,��,10.4,��쐼,23.9,89.8,0.5,5.5,5.5,8.5,0,0,989.7,1003
2019-09-23T01:34:00+09:00,3.6,��쓌,10.4,��쐼,23.9,90.3,0.5,5.5,5.5,8.5,0,0,989.4,1002.7
2019-09-23T01:35:00+09:00,3.6,��,10.4,��쐼,23.9,90.8,0.5,5.5,5.5,8.5,0,0,989.5,1002.8
2019-09-23T01:36:00+09:00,3.4,��,10.4,��쐼,23.8,90.9,0.5,5.5,5.5,8.5,0,0,989.5,1002.8
2019-09-23T01:37:00+09:00,3,��,10.4,��쐼,23.7,91.3,0.5,5.5,5.5,8.5,0,0,989.6,1002.9
2019-09-23T01:38:00+09:00,2.8,��,10.4,��쐼,23.7,91.9,0.5,5,5.5,8.5,0,0,989.5,1002.8
2019-09-23T01:39:00+09:00,2.7,��쓌,10.4,��쐼,23.7,92.4,0.5,5,5.5,8.5,0,0,989.4,1002.7
2019-09-23T01:40:00+09:00,2.4,��쓌,7.8,��쓌,23.7,92.4,0,5,5.5,8.5,0,0,989.4,1002.7
2019-09-23T01:41:00+09:00,2.2,��쓌,7.8,��쓌,23.7,92.3,0,4.5,5.5,8.5,0,0,989.5,1002.8
2019-09-23T01:42:00+09:00,2.2,��쓌,7.8,��쓌,23.7,92.4,0,4.5,5.5,8.5,0,0,989.4,1002.7
2019-09-23T01:43:00+09:00,,,,,,,,,,,,,,
2019-09-23T01:44:00+09:00,2.3,��쓌,7.8,��쓌,23.7,92.7,0.5,4.5,6,9,0,0,989.3,1002.6
2019-09-23T01:45:00+09:00,,,,,,,,,,,,,,
2019-09-23T01:46:00+09:00,2.3,��쓌,6.8,��쓌,23.6,92.8,0.5,4,6,9,0,0,989.5,1002.8
2019-09-23T01:47:00+09:00,2.2,��쓌,6.8,��쓌,23.5,92.9,0.5,3.5,6,9,0,0,989.5,1002.8
2019-09-23T01:48:00+09:00,2.2,��쓌,6.8,��쓌,23.5,93.4,0.5,3,6,9,0,0,989.7,1003
2019-09-23T01:49:00+09:00,2.2,��쓌,6.8,��쓌,23.4,93.8,0.5,3,6,9,0,0,989.8,1003.1
2019-09-23T01:50:00+09:00,2.2,��쓌,6.8,��쓌,23.4,94.3,1,3,6.5,9.5,0,0,989.6,1002.9
2019-09-23T01:51:00+09:00,2.2,��쓌,6.8,��쓌,23.4,94.6,1,3,6.5,9.5,0,0,989.7,1003
2019-09-23T01:52:00+09:00,2.3,��쓌,6.8,��쓌,23.4,94.7,1,2.5,6.5,9.5,0,0,989.8,1003.1
2019-09-23T01:53:00+09:00,2.3,��쓌,6.8,��쓌,23.4,95.1,0.5,2.5,6.5,9.5,0,0,989.4,1002.7
2019-09-23T01:54:00+09:00,2.3,��쓌,7.1,��,23.5,95.1,0.5,2.5,6.5,9.5,0,0,989.5,1002.8
2019-09-23T01:55:00+09:00,2.3,��쓌,7.1,��,23.6,95.2,0.5,2.5,6.5,9.5,0,0,989.4,1002.7
2019-09-23T01:56:00+09:00,2.5,��쓌,7.1,��,23.5,95,0.5,2.5,6.5,9.5,0,0,989.3,1002.6
2019-09-23T01:57:00+09:00,2.6,��쓌,7.1,��,23.8,95.2,0.5,2.5,6.5,9.5,0,0,989,1002.3
2019-09-23T01:58:00+09:00,2.7,��쓌,7.2,��쓌,23.9,94.7,0.5,2,6.5,9.5,0,0,988.9,1002.2
2019-09-23T01:59:00+09:00,2.9,��쓌,8.2,��,24.1,94.2,0.5,2,6.5,9.5,0,0,988.9,1002.1
2019-09-23T02:00:00+09:00,3.1,��쓌,10,��쐼,24.5,93.2,0,2,6.5,9.5,0,0,988.8,1002
2019-09-23T02:01:00+09:00,3.2,��쓌,10,��쐼,24.5,91.3,0,2,6.5,9.5,0,0,988.8,1002
2019-09-23T02:02:00+09:00,3.1,��쓌,10,��쐼,24.5,90.3,0,2,6.5,9.5,0,0,988.7,1001.9
2019-09-23T02:03:00+09:00,3.2,��쓌,10,��쐼,24.7,90.2,0,2,6.5,9.5,0,0,988.8,1002
2019-09-23T02:04:00+09:00,3.4,��쓌,10,��쐼,24.8,89.5,0,2,6.5,9.5,0,0,988.6,1001.8
2019-09-23T02:05:00+09:00,4.1,��쓌,17.4,��,25.4,89.2,0,2,6.5,9.5,0,0,988.3,1001.5
2019-09-23T02:06:00+09:00,4.4,��쓌,17.4,��,25.6,87.9,0,2,6.5,9.5,0,0,988.4,1001.6
2019-09-23T02:07:00+09:00,4.4,��쓌,17.4,��,25.5,86.4,0,2,6.5,9.5,0,0,988.7,1001.9
2019-09-23T02:08:00+09:00,4.5,��쓌,17.4,��,25.4,85.6,0,2,6.5,9.5,0,0,988.5,1001.7
2019-09-23T02:09:00+09:00,4.8,��쓌,17.4,��,25.3,85.7,0,2,6.5,9.5,0,0,988.5,1001.7
2019-09-23T02:10:00+09:00,5,��쓌,17.4,��,25.5,86.3,0,2,6.5,9.5,0,0,988.4,1001.6
2019-09-23T02:11:00+09:00,5.3,��쓌,17.4,��,25.5,86.3,0,2,6.5,9.5,0,0,988.5,1001.7
2019-09-23T02:12:00+09:00,5.6,��,17.4,��,25.5,86.2,0,2,6.5,9.5,0,0,988.4,1001.6
2019-09-23T02:13:00+09:00,6.1,��,17.4,��,25.6,86.1,0,2,6.5,9.5,0,0,988.3,1001.5
2019-09-23T02:14:00+09:00,6.2,��,17.4,��,25.8,85.7,0,2,6.5,9.5,0,0,988.4,1001.6
2019-09-23T02:15:00+09:00,5.7,��,14.2,��쐼,25.7,85.4,0,2,6.5,9.5,0,0,988.4,1001.6
2019-09-23T02:16:00+09:00,5.6,��,14.2,��쐼,25.7,85.6,0,2,6.5,9.5,0,0,988.3,1001.5
2019-09-23T02:17:00+09:00,5.8,��,14.2,��쐼,25.6,85.8,0,2,6.5,9.5,0,0,988.2,1001.4
2019-09-23T02:18:00+09:00,,,,,,,,,,,,,,
2019-09-23T02:19:00+09:00,5.6,��,14.2,��쐼,25.8,85.3,0,2,6.5,9.5,0,0,988.1,1001.3
2019-09-23T02:20:00+09:00,5.6,��,14.2,��쐼,25.8,85.4,0,2,6.5,9.5,0,0,988.2,1001.4
2019-09-23T02:21:00+09:00,5.5,��,14.2,��쐼,25.8,85.4,0,2,6.5,9.5,0,0,988.2,1001.4
2019-09-23T02:22:00+09:00,5.3,��,14.2,��쐼,25.7,85.4,0,2,6.5,9.5,0,0,988.4,1001.6
2019-09-23T02:23:00+09:00,4.9,��,12.4,��,25.7,85.7,0,1.5,6.5,9.5,0,0,988.2,1001.4
2019-09-23T02:24:00+09:00,4.8,��,12.4,��,25.9,85.3,0,1.5,6.5,9.5,0,0,988.3,1001.5
2019-09-23T02:25:00+09:00,4.7,��,12.4,��,25.8,85,0,1.5,6.5,9.5,0,0,988.2,1001.4
2019-09-23T02:26:00+09:00,4.5,��,12.4,��,25.8,85.2,0,1.5,6.5,9.5,0,0,988,1001.2
2019-09-23T02:27:00+09:00,4.6,��,12.4,��,25.9,85.2,0,1.5,6.5,9.5,0,0,988.3,1001.5
2019-09-23T02:28:00+09:00,4.8,��,12.7,��,26.1,84.8,0,1.5,6.5,9.5,0,0,988.1,1001.2
2019-09-23T02:29:00+09:00,5,��,12.7,��,26.1,84.6,0,1.5,6.5,9.5,0,0,988.3,1001.4
2019-09-23T02:30:00+09:00,5.3,��,14.7,��,26.2,84.6,0,1,6.5,9.5,0,0,988,1001.1
2019-09-23T02:31:00+09:00,5.6,��,14.7,��,26.2,84.4,0,1,6.5,9.5,0,0,987.9,1001
2019-09-23T02:32:00+09:00,5.9,��,14.7,��,26.1,84.4,0,1,6.5,9.5,0,0,987.9,1001
2019-09-23T02:33:00+09:00,5.9,��,14.7,��,26.1,84.3,0,1,6.5,9.5,0,0,988.1,1001.2
2019-09-23T02:34:00+09:00,6.1,��,14.7,��,26.1,84.1,0,1,6.5,9.5,0,0,987.7,1000.8
2019-09-23T02:35:00+09:00,6.5,��,14.7,��,26.2,84.1,0,1,6.5,9.5,0,0,987.7,1000.8
2019-09-23T02:36:00+09:00,6.7,��,14.7,��,26.1,84.1,0,1,6.5,9.5,0,0,987.7,1000.8
2019-09-23T02:37:00+09:00,6.8,��,14.7,��,26,84.3,0,1,6.5,9.5,0,0,987.7,1000.8
2019-09-23T02:38:00+09:00,6.8,��,14.7,��,26.1,84.3,0,1,6.5,9.5,0,0,987.5,1000.6
2019-09-23T02:39:00+09:00,6.6,��,14.7,��,26.2,84.1,0,1,6.5,9.5,0,0,987.6,1000.7
2019-09-23T02:40:00+09:00,6.4,��,14.7,��,26.3,83.8,0,1,6.5,9.5,0,0,987.2,1000.3
2019-09-23T02:41:00+09:00,6.3,��,14.7,��,26.2,83.8,0,1,6.5,9.5,0,0,987.5,1000.6
2019-09-23T02:42:00+09:00,6.3,��,14.7,��,26.2,83.8,0,1,6.5,9.5,0,0,987.7,1000.8
2019-09-23T02:43:00+09:00,6.8,��,17.1,��,26.3,83.8,0,0.5,6.5,9.5,0,0,987,1000.1
2019-09-23T02:44:00+09:00,6.9,��,17.1,��,26.3,83.6,0,0.5,6.5,9.5,0,0,987.5,1000.6
2019-09-23T02:45:00+09:00,6.4,��,17.1,��,26.4,83.2,0,0.5,6.5,9.5,0,0,987.5,1000.6
2019-09-23T02:46:00+09:00,6.5,��,17.1,��,26.2,83.4,0,0.5,6.5,9.5,0,0,987.4,1000.5
2019-09-23T02:47:00+09:00,6.8,��,20.7,��쐼,26.3,83.7,0,0.5,6.5,9.5,0,0,987.1,1000.2
2019-09-23T02:48:00+09:00,7.2,��,22.1,��쐼,26.5,83.5,0,0.5,6.5,9.5,0,0,986.9,1000
2019-09-23T02:49:00+09:00,8.2,��,22.1,��쐼,26.5,83,0,0.5,6.5,9.5,0,0,986.9,1000
2019-09-23T02:50:00+09:00,8.4,��,22.1,��쐼,26.5,82.8,0,0,6.5,9.5,0,0,987.2,1000.3
2019-09-23T02:51:00+09:00,,,,,,,,,,,,,,
2019-09-23T02:52:00+09:00,8.7,��,22.1,��쐼,26.5,82.4,0,0,6.5,9.5,0,0,987.1,1000.2
2019-09-23T02:53:00+09:00,,,,,,,,,,,,,,
2019-09-23T02:54:00+09:00,8.9,��,22.1,��쐼,26.6,82.2,0,0,6.5,9.5,0,0,987.2,1000.3
2019-09-23T02:55:00+09:00,9.5,��,22.1,��쐼,26.7,82,0,0,6.5,9.5,0,0,987.2,1000.3
2019-09-23T02:56:00+09:00,10.1,��,22.1,��쐼,26.7,81.8,0,0,6.5,9.5,0,0,987.1,1000.2
2019-09-23T02:57:00+09:00,10,��,22.1,��쐼,26.7,81.7,0,0,6.5,9.5,0,0,987.1,1000.2
2019-09-23T02:58:00+09:00,9.7,��,21.4,��,26.5,82,0,0,6.5,9.5,0,0,987.1,1000.2
2019-09-23T02:59:00+09:00,9.4,��,19.5,��,26.6,82.3,0,0,6.5,9.5,0,0,987,1000.1
2019-09-23T03:00:00+09:00,9.4,��,19.5,��,26.8,81.9,0,0,6.5,9.5,0,0,986.6,999.7
2019-09-23T03:01:00+09:00,10.1,��,21.8,��쐼,26.7,81.7,0,0,6.5,9.5,0,0,987.3,1000.4
2019-09-23T03:02:00+09:00,10,��,21.8,��쐼,26.6,81.9,0,0,6.5,9.5,0,0,987.1,1000.2
2019-09-23T03:03:00+09:00,10.1,��,21.8,��쐼,26.6,82.2,0,0,6.5,9.5,0,0,987,1000.1
2019-09-23T03:04:00+09:00,10.4,��,21.8,��쐼,26.6,82.3,0,0,6.5,9.5,0,0,987.1,1000.2
2019-09-23T03:05:00+09:00,10.4,��,21.8,��쐼,26.6,82.3,0,0,6.5,9.5,0,0,987,1000.1
2019-09-23T03:06:00+09:00,10.1,��,21.8,��쐼,26.6,82.3,0,0,6.5,9.5,0,0,986.7,999.8
2019-09-23T03:07:00+09:00,10.2,��,21.8,��쐼,26.6,82.4,0,0,6.5,9.5,0,0,986.9,1000
2019-09-23T03:08:00+09:00,10.2,��,21.8,��쐼,26.5,82.7,0,0,6.5,9.5,0,0,986.7,999.8
2019-09-23T03:09:00+09:00,10.2,��,21.8,��쐼,26.7,82.7,0,0,6.5,9.5,0,0,986.8,999.9
2019-09-23T03:10:00+09:00,10.5,��,21.8,��쐼,26.7,82.3,0,0,6.5,9.5,0,0,986.9,1000
2019-09-23T03:11:00+09:00,10.4,��,19.9,��,26.8,81.6,0.5,0.5,7,10,0,0,986.8,999.9
2019-09-23T03:12:00+09:00,10.6,��,19.9,��,26.7,81.8,0.5,0.5,7,10,0,0,986.7,999.8
2019-09-23T03:13:00+09:00,10.7,��,20,��쐼,26.7,81.7,0.5,0.5,7,10,0,0,986.5,999.6
2019-09-23T03:14:00+09:00,10.9,��,21.5,��쐼,26.8,81,0.5,0.5,7,10,0,0,986,999.1
2019-09-23T03:15:00+09:00,11.5,��,21.5,��쐼,26.9,80.5,0.5,0.5,7,10,0,0,986.4,999.5
2019-09-23T03:16:00+09:00,11.6,��,21.5,��쐼,27,80,0.5,0.5,7,10,0,0,986.8,999.9
2019-09-23T03:17:00+09:00,11.4,��,21.5,��쐼,27,79.6,0.5,0.5,7,10,0,0,986.4,999.5
2019-09-23T03:18:00+09:00,11.6,��,21.5,��쐼,26.9,79.6,0.5,0.5,7,10,0,0,986.5,999.6
2019-09-23T03:19:00+09:00,11.6,��,21.5,��쐼,27,79.5,0.5,0.5,7,10,0,0,986.4,999.5
2019-09-23T03:20:00+09:00,11.5,��,22.5,��,27,79.2,0.5,0.5,7,10,0,0,986.2,999.3
2019-09-23T03:21:00+09:00,11.4,��,22.5,��,27,79.2,0,0.5,7,10,0,0,986.3,999.4
2019-09-23T03:22:00+09:00,11.6,��,22.5,��,27,79.2,0,0.5,7,10,0,0,986.3,999.4
2019-09-23T03:23:00+09:00,11.5,��,22.5,��,27,79.2,0,0.5,7,10,0,0,986.3,999.4
2019-09-23T03:24:00+09:00,11.5,��,22.5,��,27,78.9,0,0.5,7,10,0,0,986.1,999.2
2019-09-23T03:25:00+09:00,,,,,,,,,,,,,,
2019-09-23T03:26:00+09:00,11.1,��,22.5,��,27,78.5,0,0.5,7,10,0,0,986.4,999.5
2019-09-23T03:27:00+09:00,,,,,,,,,,,,,,
2019-09-23T03:28:00+09:00,11.7,��,22.5,��,27,78.6,0,0.5,7,10,0,0,986.2,999.3
2019-09-23T03:29:00+09:00,11.3,��,22.5,��,27.1,78.3,0,0.5,7,10,0,0,986.4,999.5
2019-09-23T03:30:00+09:00,11.2,��,21,��쐼,27,78.3,0,0.5,7,10,0,0,986.2,999.3
2019-09-23T03:31:00+09:00,11.1,��,21,��쐼,27.1,78.2,0,0.5,7,10,0,0,986.1,999.2
2019-09-23T03:32:00+09:00,10.7,��,21,��쐼,27.1,77.9,0,0.5,7,10,0,0,986,999.1
2019-09-23T03:33:00+09:00,11.3,��,30.9,��,27.1,77.9,0,0.5,7,10,0,0,985.6,998.7
2019-09-23T03:34:00+09:00,11.7,��,30.9,��,27.3,77.1,0,0.5,7,10,0,0,985.7,998.8
2019-09-23T03:35:00+09:00,11.6,��,30.9,��,27.4,76.3,0,0.5,7,10,0,0,985.8,998.9
2019-09-23T03:36:00+09:00,11.4,��,30.9,��,27.3,76.3,0,0.5,7,10,0,0,986.2,999.3
2019-09-23T03:37:00+09:00,11.3,��,30.9,��,27.3,76.4,0,0.5,7,10,0,0,985.9,999
2019-09-23T03:38:00+09:00,11.2,��,30.9,��,27.2,76.4,0,0.5,7,10,0,0,985.9,999
2019-09-23T03:39:00+09:00,11.7,��,30.9,��,27.2,76.8,0,0.5,7,10,0,0,985.9,999
2019-09-23T03:40:00+09:00,11.8,��,30.9,��,27.2,76.9,0,0.5,7,10,0,0,986.1,999.2
2019-09-23T03:41:00+09:00,11.6,��,30.9,��,27.1,77.2,0,0.5,7,10,0,0,986.2,999.3
2019-09-23T03:42:00+09:00,11.9,��,30.9,��,27.1,77.2,0,0.5,7,10,0,0,985.7,998.8
2019-09-23T03:43:00+09:00,11.2,��,25.5,��쐼,27.1,76.9,0,0.5,7,10,0,0,985.9,999
2019-09-23T03:44:00+09:00,10.8,��,22.5,��,27.2,76.3,0,0.5,7,10,0,0,985.6,998.7
2019-09-23T03:45:00+09:00,11,��,22.5,��,27.3,76.2,0,0.5,7,10,0,0,985.8,998.9
2019-09-23T03:46:00+09:00,11,��,22.5,��,27.2,76.3,0,0.5,7,10,0,0,985.6,998.7
2019-09-23T03:47:00+09:00,11.1,��,22.5,��,27.4,75.8,0,0.5,7,10,0,0,985.7,998.8
2019-09-23T03:48:00+09:00,11,��,22.5,��,27.3,75.9,0,0.5,7,10,0,0,985.6,998.7
2019-09-23T03:49:00+09:00,10.9,��,22.5,��,27.3,75.6,0,0.5,7,10,0,0,985.4,998.5
2019-09-23T03:50:00+09:00,11,��,22.5,��,27.3,75.6,0,0.5,7,10,0,0,985.8,998.9
2019-09-23T03:51:00+09:00,11.2,��,22.5,��,27.2,75.9,0,0.5,7,10,0,0,985.7,998.8
2019-09-23T03:52:00+09:00,11.3,��,22.5,��,27.2,76.1,0,0.5,7,10,0,0,985.8,998.9
2019-09-23T03:53:00+09:00,11,��,22.5,��,27.1,76.4,0,0.5,7,10,0,0,986,999.1
2019-09-23T03:54:00+09:00,11,��,21.5,��,27.1,76.6,0,0.5,7,10,0,0,985.7,998.8
2019-09-23T03:55:00+09:00,11,��,21.5,��,27.2,76.4,0,0.5,7,10,0,0,985.8,998.9
2019-09-23T03:56:00+09:00,11.2,��,21.5,��,27.3,76.3,0,0.5,7,10,0,0,986.1,999.2
2019-09-23T03:57:00+09:00,11.2,��,21.5,��,27.3,76.2,0,0.5,7,10,0,0,985.8,998.9
2019-09-23T03:58:00+09:00,11.2,��,21.5,��,27.2,76.3,0,0.5,7,10,0,0,985.9,999
2019-09-23T03:59:00+09:00,10.8,��,20.7,��,27.3,76.3,0,0.5,7,10,0,0,986,999.1
2019-09-23T04:00:00+09:00,,,,,,,,,,,,,,
2019-09-23T04:01:00+09:00,11.1,��,23.1,��쐼,27.4,75.7,0,0.5,7,10,0,0,985.8,998.9
2019-09-23T04:02:00+09:00,11.1,��,23.1,��쐼,27.4,75.8,0,0.5,7,10,0,0,986,999.1
2019-09-23T04:03:00+09:00,11.1,��,23.1,��쐼,27.4,75.9,0,0.5,7,10,0,0,985.9,999
2019-09-23T04:04:00+09:00,11,��,23.1,��쐼,27.3,76.2,0,0.5,7,10,0,0,986,999.1
2019-09-23T04:05:00+09:00,10.6,��,23.1,��쐼,27.3,76.4,0,0.5,7,10,0,0,985.8,998.9
2019-09-23T04:06:00+09:00,10.6,��,23.1,��쐼,27.3,76.6,0,0.5,7,10,0,0,985.7,998.8
2019-09-23T04:07:00+09:00,10.6,��,23.1,��쐼,27.3,76.5,0,0.5,7,10,0,0,985.9,999
2019-09-23T04:08:00+09:00,10.6,��,23.1,��쐼,27.4,76.5,0,0.5,7,10,0,0,985.9,999
2019-09-23T04:09:00+09:00,10.8,��,23.1,��쐼,27.4,76.5,0,0.5,7,10,0,0,985.9,999
2019-09-23T04:10:00+09:00,10.4,��,22,��쐼,27.4,76.6,0,0.5,7,10,0,0,985.9,999
2019-09-23T04:11:00+09:00,10.7,��,23.9,��,27.5,76.5,0,0,7,10,0,0,985.7,998.8
2019-09-23T04:12:00+09:00,10.9,��,23.9,��,27.5,76.5,0,0,7,10,0,0,985.9,999
2019-09-23T04:13:00+09:00,11.3,��,23.9,��,27.5,76.5,0,0,7,10,0,0,985.7,998.8
2019-09-23T04:14:00+09:00,11.3,��,23.9,��,27.5,76.6,0,0,7,10,0,0,986.1,999.2
2019-09-23T04:15:00+09:00,11.4,��,23.9,��,27.4,76.8,0,0,7,10,0,0,985.7,998.8
2019-09-23T04:16:00+09:00,11.6,��,23.9,��,27.5,77,0,0,7,10,0,0,985.7,998.8
2019-09-23T04:17:00+09:00,11.8,��,23.9,��,27.4,77.1,0,0,7,10,0,0,985.8,998.9
2019-09-23T04:18:00+09:00,12.1,��,23.9,��,27.5,76.8,0,0,7,10,0,0,986,999.1
2019-09-23T04:19:00+09:00,12.4,��,23.9,��,27.5,76.9,0,0,7,10,0,0,985.5,998.5
2019-09-23T04:20:00+09:00,12.7,��쐼,23.9,��,27.6,76.7,0,0,7,10,0,0,985.7,998.7
2019-09-23T04:21:00+09:00,12.3,��쐼,19.7,��,27.6,76.7,0,0,7,10,0,0,985.6,998.6
2019-09-23T04:22:00+09:00,12.4,��쐼,19.7,��,27.6,76.8,0,0,7,10,0,0,985.7,998.7
2019-09-23T04:23:00+09:00,12.3,��,19.7,��,27.6,76.8,0,0,7,10,0,0,985.5,998.5
2019-09-23T04:24:00+09:00,12.3,��쐼,19.7,��,27.6,76.8,0,0,7,10,0,0,985.5,998.5
2019-09-23T04:25:00+09:00,12.5,��쐼,20.9,��,27.7,77,0,0,7,10,0,0,985.8,998.8
2019-09-23T04:26:00+09:00,12.3,��,20.9,��,27.7,77.1,0,0,7,10,0,0,985.5,998.5
2019-09-23T04:27:00+09:00,12.2,��,20.9,��,27.7,77.1,0,0,7,10,0,0,985.4,998.4
2019-09-23T04:28:00+09:00,12,��,20.9,��,27.7,77.1,0,0,7,10,0,0,985.6,998.6
2019-09-23T04:29:00+09:00,12,��,24.6,��쐼,27.7,77.1,0,0,7,10,0,0,985.3,998.3
2019-09-23T04:30:00+09:00,12.7,��,27.7,��쐼,27.9,76.8,0,0,7,10,0,0,985.3,998.3
2019-09-23T04:31:00+09:00,12.8,��,27.7,��쐼,27.8,76.5,0,0,7,10,0,0,985.6,998.6
2019-09-23T04:32:00+09:00,,,,,,,,,,,,,,
2019-09-23T04:33:00+09:00,12.8,��,27.7,��쐼,27.8,76.6,0,0,7,10,0,0,985.6,998.6
2019-09-23T04:34:00+09:00,13,��,27.7,��쐼,27.9,76,0,0,7,10,0,0,985.6,998.6
2019-09-23T04:35:00+09:00,,,,,,,,,,,,,,
2019-09-23T04:36:00+09:00,12.9,��,27.7,��쐼,27.7,76.8,0,0,7,10,0,0,985.9,998.9
2019-09-23T04:37:00+09:00,13,��,27.7,��쐼,27.7,76.8,0,0,7,10,0,0,985.6,998.6
2019-09-23T04:38:00+09:00,13.1,��,27.7,��쐼,27.6,77,0,0,7,10,0,0,986,999.1
2019-09-23T04:39:00+09:00,12.9,��,27.7,��쐼,27.5,77.5,0,0,7,10,0,0,985.8,998.9
2019-09-23T04:40:00+09:00,12,��,25.8,��쐼,27.5,77.8,0,0,7,10,0,0,986,999.1
2019-09-23T04:41:00+09:00,11.7,��,25.8,��쐼,27.4,78.2,0,0,7,10,0,0,985.7,998.8
2019-09-23T04:42:00+09:00,11.6,��,25.8,��쐼,27.5,78.4,0,0,7,10,0,0,985.9,999
2019-09-23T04:43:00+09:00,11.6,��,25.8,��쐼,27.5,78.5,0,0,7,10,0,0,985.4,998.4
2019-09-23T04:44:00+09:00,11.5,��쐼,25.8,��쐼,27.6,77.9,0,0,7,10,0,0,985.8,998.8
2019-09-23T04:45:00+09:00,11.2,��쐼,25.8,��쐼,27.5,78,0,0,7,10,0,0,985.7,998.8
2019-09-23T04:46:00+09:00,11.1,��,20.7,��,27.4,78.4,0,0,7,10,0,0,985.9,999
2019-09-23T04:47:00+09:00,10.6,��,20.7,��,27.4,78.7,0,0,7,10,0,0,985.8,998.9
2019-09-23T04:48:00+09:00,10.5,��,20.7,��,27.3,79.1,0,0,7,10,0,0,985.8,998.9
2019-09-23T04:49:00+09:00,10.3,��,20.7,��,27.3,79.5,0,0,7,10,0,0,985.8,998.9
2019-09-23T04:50:00+09:00,10.2,��,20.7,��,27.3,79.7,0,0,7,10,0,0,985.8,998.9
2019-09-23T04:51:00+09:00,10.3,��,20.7,��,27.3,79.5,0,0,7,10,0,0,985.8,998.9
2019-09-23T04:52:00+09:00,10.3,��,19.9,��,27.4,78.7,0,0,7,10,0,0,985.8,998.9
2019-09-23T04:53:00+09:00,10,��,18.9,��,27.4,78.4,0,0,7,10,0,0,985.6,998.7
2019-09-23T04:54:00+09:00,9.9,��,18.8,��쐼,27.5,77.3,0,0,7,10,0,0,985.7,998.8
2019-09-23T04:55:00+09:00,10.3,��,20.5,��쐼,27.6,76.5,0,0,7,10,0,0,985.3,998.3
2019-09-23T04:56:00+09:00,10.5,��쐼,20.5,��쐼,27.7,75.9,0,0,7,10,0,0,985.8,998.8
2019-09-23T04:57:00+09:00,10.8,��쐼,20.5,��쐼,27.6,76,0,0,7,10,0,0,985.8,998.8
2019-09-23T04:58:00+09:00,11,��쐼,20.5,��쐼,27.6,76.1,0,0,7,10,0,0,985.7,998.7
2019-09-23T04:59:00+09:00,11.2,��쐼,20.5,��쐼,27.5,76.3,0,0,7,10,0,0,985.7,998.8
2019-09-23T05:00:00+09:00,11.4,��쐼,20.5,��쐼,27.5,76,0,0,7,10,0,0,986,999.1
2019-09-23T05:01:00+09:00,11.3,��쐼,24.9,��,27.6,75.6,0,0,7,10,0,0,985.8,998.8
2019-09-23T05:02:00+09:00,11.4,��,24.9,��,27.6,75.5,0,0,7,10,0,0,985.9,999
2019-09-23T05:03:00+09:00,11.5,��쐼,24.9,��,27.6,75.4,0,0,7,10,0,0,986,999.1
2019-09-23T05:04:00+09:00,11.6,��쐼,24.9,��,27.6,75.5,0,0,7,10,0,0,985.8,998.8
2019-09-23T05:05:00+09:00,,,,,,,,,,,,,,
2019-09-23T05:06:00+09:00,11.3,��,24.9,��,27.6,75.8,0,0,7,10,0,0,986,999.1
2019-09-23T05:07:00+09:00,11,��,24.9,��,27.5,76.2,0,0,7,10,0,0,986,999.1